TimeAKDT,TemperatureF,Dew PointF,Humidity,Sea Level PressureIn,VisibilityMPH,Wind Direction,Wind SpeedMPH,Gust SpeedMPH,PrecipitationIn,Events,Conditions,WindDirDegrees,DateUTC
12:53 AM,-20.0,-24.0,82,29.57,10.0,East,5.8,-,N/A,,Partly Cloudy,100,2014-03-13 08:53:00
1:53 AM,-20.9,-26.0,77,29.58,10.0,SE,4.6,-,N/A,,Clear,140,2014-03-13 09:53:00
2:53 AM,-18.0,-23.1,78,29.59,10.0,SSE,4.6,-,N/A,,Clear,160,2014-03-13 10:53:00
3:53 AM,-18.0,-23.1,78,29.58,10.0,East,4.6,-,N/A,,Scattered Clouds,100,2014-03-13 11:53:00
4:53 AM,-18.9,-25.1,74,29.57,10.0,ENE,6.9,-,N/A,,Scattered Clouds,70,2014-03-13 12:53:00
5:53 AM,-18.0,-24.0,74,29.58,10.0,East,4.6,-,N/A,,Scattered Clouds,80,2014-03-13 13:53:00
6:53 AM,-17.0,-23.1,74,29.59,10.0,ENE,5.8,-,N/A,,Mostly Cloudy,60,2014-03-13 14:53:00
7:53 AM,-15.0,-20.9,75,29.57,10.0,ENE,8.1,-,N/A,,Overcast,60,2014-03-13 15:53:00
8:53 AM,-15.0,-20.9,75,29.57,10.0,ENE,8.1,-,N/A,,Mostly Cloudy,70,2014-03-13 16:53:00
9:53 AM,-11.9,-18.0,74,29.57,10.0,ENE,9.2,-,N/A,,Clear,60,2014-03-13 17:53:00
10:53 AM,-9.0,-16.1,71,29.57,10.0,ENE,9.2,-,N/A,,Overcast,60,2014-03-13 18:53:00
11:53 AM,-9.0,-16.1,71,29.56,10.0,ENE,10.4,-,N/A,,Mostly Cloudy,60,2014-03-13 19:53:00
12:53 PM,-9.0,-15.0,75,29.55,10.0,ENE,11.5,-,N/A,,Mostly Cloudy,70,2014-03-13 20:53:00
1:53 PM,-9.0,-14.1,79,29.55,10.0,ENE,9.2,-,N/A,,Mostly Cloudy,70,2014-03-13 21:53:00
2:53 PM,-6.0,-11.9,75,29.55,10.0,ENE,9.2,-,N/A,,Mostly Cloudy,70,2014-03-13 22:53:00
3:53 PM,-5.1,-11.0,76,29.53,10.0,ENE,11.5,-,N/A,,Mostly Cloudy,70,2014-03-13 23:53:00
4:53 PM,-4.0,-9.9,76,29.52,10.0,East,13.8,-,N/A,,Mostly Cloudy,80,2014-03-14 00:53:00
5:53 PM,-5.1,-11.0,76,29.51,10.0,ENE,11.5,-,N/A,,Clear,70,2014-03-14 01:53:00
6:53 PM,-7.1,-11.9,79,29.50,10.0,East,12.7,-,N/A,,Mostly Cloudy,80,2014-03-14 02:53:00
7:53 PM,-6.0,-11.0,79,29.49,10.0,East,12.7,-,N/A,,Overcast,90,2014-03-14 03:53:00
8:53 PM,-4.0,-9.9,76,29.48,10.0,East,13.8,-,N/A,,Overcast,90,2014-03-14 04:53:00
9:53 PM,-4.0,-9.0,79,29.47,10.0,East,16.1,-,N/A,,Mostly Cloudy,80,2014-03-14 05:53:00
10:53 PM,-2.9,-9.0,75,29.46,10.0,East,13.8,-,N/A,,Mostly Cloudy,80,2014-03-14 06:53:00
11:53 PM,-2.9,-8.0,79,29.45,10.0,East,12.7,-,N/A,,Mostly Cloudy,80,2014-03-14 07:53:00